Year,Month,Day,Hour,Minute,Value (Times are PST for windgust in km/hr)
2019,11,26,00,00,4.80
2019,11,26,00,01,4.80
2019,11,26,00,02,4.80
2019,11,26,00,03,4.80
2019,11,26,00,04,4.80
2019,11,26,00,05,1.60
2019,11,26,00,06,4.80
2019,11,26,00,07,4.80
2019,11,26,00,08,4.80
2019,11,26,00,09,4.80
2019,11,26,00,10,4.80
2019,11,26,00,11,3.20
2019,11,26,00,12,4.80
2019,11,26,00,13,3.20
2019,11,26,00,14,4.80
2019,11,26,00,15,4.80
2019,11,26,00,16,3.20
2019,11,26,00,17,4.80
2019,11,26,00,18,3.20
2019,11,26,00,19,4.80
2019,11,26,00,20,4.80
2019,11,26,00,21,4.80
2019,11,26,00,22,6.40
2019,11,26,00,23,4.80
2019,11,26,00,24,4.80
2019,11,26,00,25,6.40
2019,11,26,00,26,4.80
2019,11,26,00,27,3.20
2019,11,26,00,29,3.20
2019,11,26,00,30,4.80
2019,11,26,00,31,4.80
2019,11,26,00,32,4.80
2019,11,26,00,33,4.80
2019,11,26,00,34,3.20
2019,11,26,00,38,1.60
2019,11,26,00,39,4.80
2019,11,26,00,40,4.80
2019,11,26,00,41,4.80
2019,11,26,00,42,4.80
2019,11,26,00,43,4.80
2019,11,26,00,44,4.80
2019,11,26,00,45,4.80
2019,11,26,00,46,4.80
2019,11,26,00,47,4.80
2019,11,26,00,48,4.80
2019,11,26,00,49,4.80
2019,11,26,00,50,3.20
2019,11,26,00,51,4.80
2019,11,26,00,52,4.80
2019,11,26,00,53,6.40
2019,11,26,00,54,4.80
2019,11,26,00,55,4.80
2019,11,26,00,56,4.80
2019,11,26,00,57,6.40
2019,11,26,00,58,4.80
2019,11,26,01,01,4.80
2019,11,26,01,02,4.80
2019,11,26,01,03,4.80
2019,11,26,01,04,4.80
2019,11,26,01,05,4.80
2019,11,26,01,06,4.80
2019,11,26,01,07,4.80
2019,11,26,01,08,4.80
2019,11,26,01,09,4.80
2019,11,26,01,10,4.80
2019,11,26,01,11,4.80
2019,11,26,01,12,4.80
2019,11,26,01,13,4.80
2019,11,26,01,14,4.80
2019,11,26,01,15,4.80
2019,11,26,01,16,4.80
2019,11,26,01,17,4.80
2019,11,26,01,18,3.20
2019,11,26,01,19,4.80
2019,11,26,01,20,3.20
2019,11,26,01,21,4.80
2019,11,26,01,22,4.80
2019,11,26,01,23,4.80
2019,11,26,01,24,4.80
2019,11,26,01,26,4.80
2019,11,26,01,27,3.20
2019,11,26,01,28,4.80
2019,11,26,01,29,4.80
2019,11,26,01,30,4.80
2019,11,26,01,31,4.80
2019,11,26,01,32,4.80
2019,11,26,01,33,3.20
2019,11,26,01,34,4.80
2019,11,26,01,35,4.80
2019,11,26,01,36,3.20
2019,11,26,01,37,4.80
2019,11,26,01,38,4.80
2019,11,26,01,39,4.80
2019,11,26,01,40,3.20
2019,11,26,01,42,4.80
2019,11,26,01,43,4.80
2019,11,26,01,44,4.80
2019,11,26,01,45,4.80
2019,11,26,01,46,4.80
2019,11,26,01,47,4.80
2019,11,26,01,48,6.40
2019,11,26,01,49,3.20
2019,11,26,01,50,3.20
2019,11,26,01,51,4.80
2019,11,26,01,52,6.40
2019,11,26,01,53,4.80
2019,11,26,01,54,4.80
2019,11,26,01,55,4.80
2019,11,26,01,56,4.80
2019,11,26,01,57,4.80
2019,11,26,01,58,4.80
2019,11,26,01,59,4.80
2019,11,26,02,00,4.80
2019,11,26,02,01,3.20
2019,11,26,02,02,3.20
2019,11,26,02,03,3.20
2019,11,26,02,05,4.80
2019,11,26,02,06,3.20
2019,11,26,02,07,3.20
2019,11,26,02,08,3.20
2019,11,26,02,09,3.20
2019,11,26,02,10,3.20
2019,11,26,02,11,4.80
2019,11,26,02,12,3.20
2019,11,26,02,13,3.20
2019,11,26,02,14,3.20
2019,11,26,02,15,3.20
2019,11,26,02,16,3.20
2019,11,26,02,17,3.20
2019,11,26,02,18,3.20
2019,11,26,02,19,4.80
2019,11,26,02,20,4.80
2019,11,26,02,21,3.20
2019,11,26,02,22,3.20
2019,11,26,02,23,3.20
2019,11,26,02,24,4.80
2019,11,26,02,25,3.20
2019,11,26,02,26,3.20
2019,11,26,02,27,3.20
2019,11,26,02,28,3.20
2019,11,26,02,29,3.20
2019,11,26,02,30,3.20
2019,11,26,02,31,3.20
2019,11,26,02,32,3.20
2019,11,26,02,33,3.20
2019,11,26,02,34,4.80
2019,11,26,02,35,4.80
2019,11,26,02,36,3.20
2019,11,26,02,37,4.80
2019,11,26,02,38,3.20
2019,11,26,02,39,4.80
2019,11,26,02,40,4.80
2019,11,26,02,41,3.20
2019,11,26,02,42,4.80
2019,11,26,02,43,4.80
2019,11,26,02,44,3.20
2019,11,26,02,45,4.80
2019,11,26,02,46,4.80
2019,11,26,02,47,3.20
2019,11,26,02,48,3.20
2019,11,26,02,49,4.80
2019,11,26,02,50,3.20
2019,11,26,02,51,3.20
2019,11,26,02,52,3.20
2019,11,26,02,53,4.80
2019,11,26,02,54,3.20
2019,11,26,02,55,4.80
2019,11,26,02,56,3.20
2019,11,26,02,57,3.20
2019,11,26,02,58,4.80
2019,11,26,02,59,4.80
2019,11,26,03,00,4.80
2019,11,26,03,01,4.80
2019,11,26,03,02,3.20
2019,11,26,03,03,3.20
2019,11,26,03,04,3.20
2019,11,26,03,05,4.80
2019,11,26,03,06,4.80
2019,11,26,03,07,4.80
2019,11,26,03,08,4.80
2019,11,26,03,09,3.20
2019,11,26,03,10,3.20
2019,11,26,03,11,3.20
2019,11,26,03,12,4.80
2019,11,26,03,13,4.80
2019,11,26,03,14,3.20
2019,11,26,03,15,3.20
2019,11,26,03,16,3.20
2019,11,26,03,17,6.40
2019,11,26,03,18,6.40
2019,11,26,03,19,4.80
2019,11,26,03,20,4.80
2019,11,26,03,21,3.20
2019,11,26,03,23,1.60
2019,11,26,03,25,4.80
2019,11,26,03,26,4.80
2019,11,26,03,27,4.80
2019,11,26,03,28,4.80
2019,11,26,03,29,4.80
2019,11,26,03,30,4.80
2019,11,26,03,31,6.40
2019,11,26,03,32,4.80
2019,11,26,03,33,4.80
2019,11,26,03,34,4.80
2019,11,26,03,35,3.20
2019,11,26,03,36,4.80
2019,11,26,03,37,3.20
2019,11,26,03,38,3.20
2019,11,26,03,39,3.20
2019,11,26,03,40,4.80
2019,11,26,03,41,4.80
2019,11,26,03,42,4.80
2019,11,26,03,43,4.80
2019,11,26,03,44,4.80
2019,11,26,03,45,6.40
2019,11,26,03,46,3.20
2019,11,26,03,47,4.80
2019,11,26,03,48,4.80
2019,11,26,03,49,4.80
2019,11,26,03,50,3.20
2019,11,26,03,51,4.80
2019,11,26,03,52,4.80
2019,11,26,03,53,3.20
2019,11,26,03,56,3.20
2019,11,26,03,57,3.20
2019,11,26,03,58,3.20
2019,11,26,03,59,4.80
2019,11,26,04,00,3.20
2019,11,26,04,01,4.80
2019,11,26,04,02,4.80
2019,11,26,04,03,4.80
2019,11,26,04,04,4.80
2019,11,26,04,05,3.20
2019,11,26,04,06,3.20
2019,11,26,04,07,3.20
2019,11,26,04,08,3.20
2019,11,26,04,09,4.80
2019,11,26,04,10,4.80
2019,11,26,04,11,4.80
2019,11,26,04,12,3.20
2019,11,26,04,13,3.20
2019,11,26,04,14,3.20
2019,11,26,04,15,3.20
2019,11,26,04,16,3.20
2019,11,26,04,17,3.20
2019,11,26,04,18,3.20
2019,11,26,04,20,3.20
2019,11,26,04,21,4.80
2019,11,26,04,22,3.20
2019,11,26,04,23,3.20
2019,11,26,04,24,3.20
2019,11,26,04,25,3.20
2019,11,26,04,26,3.20
2019,11,26,04,27,3.20
2019,11,26,04,28,3.20
2019,11,26,04,29,3.20
2019,11,26,04,30,4.80
2019,11,26,04,31,3.20
2019,11,26,04,32,4.80
2019,11,26,04,33,4.80
2019,11,26,04,34,4.80
2019,11,26,04,35,3.20
2019,11,26,04,36,3.20
2019,11,26,04,37,3.20
2019,11,26,04,38,3.20
2019,11,26,04,39,3.20
2019,11,26,04,48,3.20
2019,11,26,04,49,1.60
2019,11,26,04,50,3.20
2019,11,26,04,56,3.20
2019,11,26,04,57,3.20
2019,11,26,04,58,4.80
2019,11,26,04,59,3.20
2019,11,26,05,01,1.60
2019,11,26,05,02,3.20
2019,11,26,05,03,4.80
2019,11,26,05,04,3.20
2019,11,26,05,05,3.20
2019,11,26,05,06,3.20
2019,11,26,05,07,4.80
2019,11,26,05,08,4.80
2019,11,26,05,09,4.80
2019,11,26,05,10,4.80
2019,11,26,05,11,4.80
2019,11,26,05,12,4.80
2019,11,26,05,13,4.80
2019,11,26,05,14,3.20
2019,11,26,05,15,4.80
2019,11,26,05,16,4.80
2019,11,26,05,17,3.20
2019,11,26,05,18,3.20
2019,11,26,05,19,3.20
2019,11,26,05,20,4.80
2019,11,26,05,21,3.20
2019,11,26,05,22,3.20
2019,11,26,05,23,3.20
2019,11,26,05,25,4.80
2019,11,26,05,26,4.80
2019,11,26,05,27,3.20
2019,11,26,05,28,3.20
2019,11,26,05,29,3.20
2019,11,26,05,30,4.80
2019,11,26,05,31,4.80
2019,11,26,05,32,4.80
2019,11,26,05,33,6.40
2019,11,26,05,35,6.40
2019,11,26,05,36,6.40
2019,11,26,05,37,1.60
2019,11,26,05,38,1.60
2019,11,26,05,39,4.80
2019,11,26,05,40,4.80
2019,11,26,05,41,1.60
2019,11,26,05,43,4.80
2019,11,26,05,44,6.40
2019,11,26,05,45,3.20
2019,11,26,05,46,3.20
2019,11,26,05,47,4.80
2019,11,26,05,48,3.20
2019,11,26,05,49,3.20
2019,11,26,05,50,3.20
2019,11,26,05,51,4.80
2019,11,26,05,52,6.40
2019,11,26,05,53,3.20
2019,11,26,05,54,4.80
2019,11,26,05,55,3.20
2019,11,26,05,56,1.60
2019,11,26,05,57,3.20
2019,11,26,05,58,1.60
2019,11,26,06,16,1.60
2019,11,26,06,19,3.20
2019,11,26,06,20,3.20
2019,11,26,06,21,4.80
2019,11,26,06,22,3.20
2019,11,26,06,23,4.80
2019,11,26,06,25,1.60
2019,11,26,06,35,3.20
2019,11,26,06,36,1.60
2019,11,26,06,37,1.60
2019,11,26,06,38,3.20
2019,11,26,06,46,3.20
2019,11,26,06,47,3.20
2019,11,26,06,48,3.20
2019,11,26,06,49,4.80
2019,11,26,06,50,4.80
2019,11,26,06,51,3.20
2019,11,26,06,52,4.80
2019,11,26,06,53,3.20
2019,11,26,06,54,3.20
2019,11,26,06,55,3.20
2019,11,26,06,56,4.80
2019,11,26,06,57,3.20
2019,11,26,06,58,1.60
2019,11,26,06,59,3.20
2019,11,26,07,00,4.80
2019,11,26,07,01,3.20
2019,11,26,07,02,3.20
2019,11,26,07,03,3.20
2019,11,26,07,04,1.60
2019,11,26,07,09,3.20
2019,11,26,07,10,3.20
2019,11,26,07,11,3.20
2019,11,26,07,12,3.20
2019,11,26,07,13,3.20
2019,11,26,07,14,1.60
2019,11,26,07,20,3.20
2019,11,26,07,21,3.20
2019,11,26,07,22,1.60
2019,11,26,07,23,3.20
2019,11,26,07,25,3.20
2019,11,26,07,26,3.20
2019,11,26,07,27,4.80
2019,11,26,07,28,3.20
2019,11,26,07,30,3.20
2019,11,26,07,31,1.60
2019,11,26,08,07,3.20
2019,11,26,08,08,3.20
2019,11,26,08,09,1.60
2019,11,26,08,12,3.20
2019,11,26,08,13,3.20
2019,11,26,08,14,1.60
2019,11,26,08,15,1.60
2019,11,26,08,16,1.60
2019,11,26,08,21,3.20
2019,11,26,08,22,1.60
2019,11,26,08,28,3.20
2019,11,26,08,29,3.20
2019,11,26,08,30,3.20
2019,11,26,08,31,3.20
2019,11,26,08,32,3.20
2019,11,26,08,33,3.20
2019,11,26,08,34,3.20
2019,11,26,08,35,3.20
2019,11,26,08,36,3.20
2019,11,26,08,37,3.20
2019,11,26,08,38,3.20
2019,11,26,08,39,3.20
2019,11,26,08,40,3.20
2019,11,26,08,41,3.20
2019,11,26,08,43,3.20
2019,11,26,08,44,3.20
2019,11,26,08,45,3.20
2019,11,26,08,46,1.60
2019,11,26,08,47,1.60
2019,11,26,09,59,1.60
2019,11,26,10,02,6.40
2019,11,26,10,03,3.20
2019,11,26,10,04,3.20
2019,11,26,10,05,1.60
2019,11,26,10,06,8.10
2019,11,26,10,07,9.60
2019,11,26,10,08,8.10
2019,11,26,10,09,3.20
2019,11,26,10,10,8.10
2019,11,26,10,11,6.40
2019,11,26,10,12,4.80
2019,11,26,10,13,6.40
2019,11,26,10,14,6.40
2019,11,26,10,15,11.30
2019,11,26,10,16,9.60
2019,11,26,10,17,9.60
2019,11,26,10,18,6.40
2019,11,26,10,19,6.40
2019,11,26,10,20,4.80
2019,11,26,10,21,4.80
2019,11,26,10,22,4.80
2019,11,26,10,23,6.40
2019,11,26,10,24,6.40
2019,11,26,10,25,8.10
2019,11,26,10,26,6.40
2019,11,26,10,27,1.60
2019,11,26,10,28,3.20
2019,11,26,10,29,3.20
2019,11,26,10,30,4.80
2019,11,26,10,31,6.40
2019,11,26,10,32,4.80
2019,11,26,10,33,1.60
2019,11,26,10,34,8.10
2019,11,26,10,35,8.10
2019,11,26,10,36,3.20
2019,11,26,10,37,3.20
2019,11,26,10,39,3.20
2019,11,26,10,40,4.80
2019,11,26,10,41,8.10
2019,11,26,10,42,6.40
2019,11,26,10,43,8.10
2019,11,26,10,44,4.80
2019,11,26,10,45,4.80
2019,11,26,10,46,1.60
2019,11,26,10,47,8.10
2019,11,26,10,48,6.40
2019,11,26,10,49,3.20
2019,11,26,10,51,3.20
2019,11,26,10,52,8.10
2019,11,26,10,53,6.40
2019,11,26,10,54,4.80
2019,11,26,10,55,3.20
2019,11,26,10,56,1.60
2019,11,26,10,57,3.20
2019,11,26,10,58,6.40
2019,11,26,10,59,4.80
2019,11,26,11,00,11.30
2019,11,26,11,01,6.40
2019,11,26,11,02,4.80
2019,11,26,11,03,9.60
2019,11,26,11,04,16.10
2019,11,26,11,05,8.10
2019,11,26,11,06,9.60
2019,11,26,11,07,3.20
2019,11,26,11,08,9.60
2019,11,26,11,09,4.80
2019,11,26,11,10,6.40
2019,11,26,11,11,11.30
2019,11,26,11,12,9.60
2019,11,26,11,13,9.60
2019,11,26,11,14,9.60
2019,11,26,11,15,4.80
2019,11,26,11,16,6.40
2019,11,26,11,17,11.30
2019,11,26,11,18,11.30
2019,11,26,11,19,11.30
2019,11,26,11,20,3.20
2019,11,26,11,22,9.60
2019,11,26,11,23,8.10
2019,11,26,11,24,11.30
2019,11,26,11,25,17.70
2019,11,26,11,26,14.50
2019,11,26,11,27,8.10
2019,11,26,11,28,16.10
2019,11,26,11,29,11.30
2019,11,26,11,30,19.30
2019,11,26,11,31,11.30
2019,11,26,11,32,9.60
2019,11,26,11,33,9.60
2019,11,26,11,34,9.60
2019,11,26,11,35,11.30
2019,11,26,11,36,16.10
2019,11,26,11,37,14.50
2019,11,26,11,38,14.50
2019,11,26,11,39,9.60
2019,11,26,11,40,4.80
2019,11,26,11,41,6.40
2019,11,26,11,42,6.40
2019,11,26,11,43,9.60
2019,11,26,11,44,6.40
2019,11,26,11,45,8.10
2019,11,26,11,46,8.10
2019,11,26,11,47,8.10
2019,11,26,11,48,4.80
2019,11,26,11,49,4.80
2019,11,26,11,50,6.40
2019,11,26,11,51,8.10
2019,11,26,11,52,6.40
2019,11,26,11,53,6.40
2019,11,26,11,54,9.60
2019,11,26,11,55,11.30
2019,11,26,11,56,14.50
2019,11,26,11,57,12.90
2019,11,26,11,58,9.60
2019,11,26,11,59,8.10
2019,11,26,12,00,14.50
2019,11,26,12,01,6.40
2019,11,26,12,02,11.30
2019,11,26,12,03,14.50
2019,11,26,12,04,14.50
2019,11,26,12,05,16.10
2019,11,26,12,06,16.10
2019,11,26,12,07,11.30
2019,11,26,12,08,4.80
2019,11,26,12,09,6.40
2019,11,26,12,10,4.80
2019,11,26,12,11,6.40
2019,11,26,12,12,6.40
2019,11,26,12,13,8.10
2019,11,26,12,14,11.30
2019,11,26,12,15,12.90
2019,11,26,12,16,6.40
2019,11,26,12,17,4.80
2019,11,26,12,18,6.40
2019,11,26,12,19,6.40
2019,11,26,12,20,4.80
2019,11,26,12,21,6.40
2019,11,26,12,22,4.80
2019,11,26,12,23,8.10
2019,11,26,12,24,8.10
2019,11,26,12,25,6.40
2019,11,26,12,26,6.40
2019,11,26,12,27,11.30
2019,11,26,12,28,16.10
2019,11,26,12,29,9.60
2019,11,26,12,30,8.10
2019,11,26,12,31,14.50
2019,11,26,12,32,6.40
2019,11,26,12,33,11.30
2019,11,26,12,34,4.80
2019,11,26,12,35,8.10
2019,11,26,12,36,6.40
2019,11,26,12,37,8.10
2019,11,26,12,38,12.90
2019,11,26,12,39,9.60
2019,11,26,12,40,12.90
2019,11,26,12,41,11.30
2019,11,26,12,42,8.10
2019,11,26,12,43,16.10
2019,11,26,12,44,16.10
2019,11,26,12,45,8.10
2019,11,26,12,46,9.60
2019,11,26,12,47,8.10
2019,11,26,12,48,14.50
2019,11,26,12,49,16.10
2019,11,26,12,50,16.10
2019,11,26,12,51,11.30
2019,11,26,12,52,11.30
2019,11,26,12,53,8.10
2019,11,26,12,54,8.10
2019,11,26,12,55,11.30
2019,11,26,12,56,6.40
2019,11,26,12,57,6.40
2019,11,26,12,58,9.60
2019,11,26,12,59,6.40
2019,11,26,13,00,8.10
2019,11,26,13,01,9.60
2019,11,26,13,02,4.80
2019,11,26,13,03,9.60
2019,11,26,13,04,4.80
2019,11,26,13,05,4.80
2019,11,26,13,06,17.70
2019,11,26,13,07,11.30
2019,11,26,13,08,20.90
2019,11,26,13,09,19.30
2019,11,26,13,10,14.50
2019,11,26,13,11,9.60
2019,11,26,13,12,9.60
2019,11,26,13,13,14.50
2019,11,26,13,14,9.60
2019,11,26,13,15,8.10
2019,11,26,13,16,1.60
2019,11,26,13,17,11.30
2019,11,26,13,18,6.40
2019,11,26,13,19,9.60
2019,11,26,13,20,6.40
2019,11,26,13,21,6.40
2019,11,26,13,22,6.40
2019,11,26,13,23,4.80
2019,11,26,13,24,4.80
2019,11,26,13,25,6.40
2019,11,26,13,26,6.40
2019,11,26,13,27,8.10
2019,11,26,13,28,9.60
2019,11,26,13,30,3.20
2019,11,26,13,31,3.20
2019,11,26,13,35,4.80
2019,11,26,13,36,4.80
2019,11,26,13,38,6.40
2019,11,26,13,39,6.40
2019,11,26,13,40,14.50
2019,11,26,13,41,8.10
2019,11,26,13,42,6.40
2019,11,26,13,45,4.80
2019,11,26,13,46,6.40
2019,11,26,13,47,4.80
2019,11,26,13,48,4.80
2019,11,26,13,49,4.80
2019,11,26,13,50,3.20
2019,11,26,13,51,1.60
2019,11,26,13,52,6.40
2019,11,26,13,53,4.80
2019,11,26,13,54,3.20
2019,11,26,13,55,1.60
2019,11,26,13,56,6.40
2019,11,26,13,57,4.80
2019,11,26,13,58,6.40
2019,11,26,13,59,9.60
2019,11,26,14,00,11.30
2019,11,26,14,01,6.40
2019,11,26,14,02,6.40
2019,11,26,14,03,4.80
2019,11,26,14,04,6.40
2019,11,26,14,05,8.10
2019,11,26,14,06,11.30
2019,11,26,14,07,9.60
2019,11,26,14,08,8.10
2019,11,26,14,09,4.80
2019,11,26,14,10,6.40
2019,11,26,14,11,1.60
2019,11,26,14,12,8.10
2019,11,26,14,13,9.60
2019,11,26,14,14,9.60
2019,11,26,14,15,11.30
2019,11,26,14,16,9.60
2019,11,26,14,17,9.60
2019,11,26,14,18,19.30
2019,11,26,14,19,8.10
2019,11,26,14,20,6.40
2019,11,26,14,21,6.40
2019,11,26,14,22,4.80
2019,11,26,14,23,4.80
2019,11,26,14,24,3.20
2019,11,26,14,25,6.40
2019,11,26,14,26,6.40
2019,11,26,14,27,3.20
2019,11,26,14,28,4.80
2019,11,26,14,29,8.10
2019,11,26,14,30,8.10
2019,11,26,14,31,6.40
2019,11,26,14,32,4.80
2019,11,26,14,33,3.20
2019,11,26,14,34,1.60
2019,11,26,14,36,1.60
2019,11,26,14,37,4.80
2019,11,26,14,40,3.20
2019,11,26,14,41,3.20
2019,11,26,14,42,3.20
2019,11,26,14,43,4.80
2019,11,26,14,44,9.60
2019,11,26,14,45,4.80
2019,11,26,14,46,1.60
2019,11,26,14,47,3.20
2019,11,26,14,48,3.20
2019,11,26,14,49,4.80
2019,11,26,14,50,8.10
2019,11,26,14,51,8.10
2019,11,26,14,52,3.20
2019,11,26,14,53,4.80
2019,11,26,14,54,6.40
2019,11,26,14,55,8.10
2019,11,26,14,56,6.40
2019,11,26,14,57,6.40
2019,11,26,14,58,16.10
2019,11,26,14,59,8.10
2019,11,26,15,00,3.20
2019,11,26,15,01,1.60
2019,11,26,15,02,1.60
2019,11,26,15,03,3.20
2019,11,26,15,04,9.60
2019,11,26,15,05,4.80
2019,11,26,15,06,3.20
2019,11,26,15,07,4.80
2019,11,26,15,08,4.80
2019,11,26,15,09,4.80
2019,11,26,15,10,8.10
2019,11,26,15,11,3.20
2019,11,26,15,12,3.20
2019,11,26,15,13,1.60
2019,11,26,15,20,6.40
2019,11,26,15,21,6.40
2019,11,26,15,22,9.60
2019,11,26,15,23,3.20
2019,11,26,15,24,4.80
2019,11,26,15,25,4.80
2019,11,26,15,26,6.40
2019,11,26,15,27,3.20
2019,11,26,15,28,4.80
2019,11,26,15,29,4.80
2019,11,26,15,30,3.20
2019,11,26,15,31,3.20
2019,11,26,15,32,4.80
2019,11,26,15,33,4.80
2019,11,26,15,34,3.20
2019,11,26,15,35,3.20
2019,11,26,15,37,3.20
2019,11,26,15,38,4.80
2019,11,26,15,39,4.80
2019,11,26,15,40,4.80
2019,11,26,15,41,4.80
2019,11,26,15,42,3.20
2019,11,26,15,43,1.60
2019,11,26,15,47,3.20
2019,11,26,15,48,4.80
2019,11,26,15,49,3.20
2019,11,26,15,50,3.20
2019,11,26,15,51,3.20
2019,11,26,15,52,1.60
2019,11,26,15,55,6.40
2019,11,26,15,56,9.60
2019,11,26,15,57,6.40
2019,11,26,15,58,3.20
2019,11,26,15,59,6.40
2019,11,26,16,00,4.80
2019,11,26,16,01,3.20
2019,11,26,16,02,4.80
2019,11,26,16,03,3.20
2019,11,26,16,04,4.80
2019,11,26,16,05,6.40
2019,11,26,16,06,6.40
2019,11,26,16,07,4.80
2019,11,26,16,08,4.80
2019,11,26,16,09,3.20
2019,11,26,16,10,3.20
2019,11,26,16,13,8.10
2019,11,26,16,14,1.60
2019,11,26,16,15,3.20
2019,11,26,16,16,4.80
2019,11,26,16,17,3.20
2019,11,26,16,18,4.80
2019,11,26,16,19,6.40
2019,11,26,16,20,4.80
2019,11,26,16,21,4.80
2019,11,26,16,22,1.60
2019,11,26,16,23,3.20
2019,11,26,16,24,1.60
2019,11,26,16,25,6.40
2019,11,26,16,26,4.80
2019,11,26,16,27,1.60
2019,11,26,16,28,4.80
2019,11,26,16,29,8.10
2019,11,26,16,30,4.80
2019,11,26,16,31,6.40
2019,11,26,16,32,3.20
2019,11,26,16,33,9.60
2019,11,26,16,34,9.60
2019,11,26,16,35,4.80
2019,11,26,16,36,4.80
2019,11,26,16,37,8.10
2019,11,26,16,38,9.60
2019,11,26,16,39,8.10
2019,11,26,16,40,6.40
2019,11,26,16,41,6.40
2019,11,26,16,42,9.60
2019,11,26,16,43,11.30
2019,11,26,16,44,4.80
2019,11,26,16,45,8.10
2019,11,26,16,46,6.40
2019,11,26,16,47,9.60
2019,11,26,16,48,8.10
2019,11,26,16,49,8.10
2019,11,26,16,50,1.60
2019,11,26,16,51,4.80
2019,11,26,16,52,8.10
2019,11,26,16,53,8.10
2019,11,26,16,54,8.10
2019,11,26,16,55,6.40
2019,11,26,16,56,1.60
2019,11,26,16,58,3.20
2019,11,26,16,59,8.10
2019,11,26,17,00,9.60
2019,11,26,17,01,6.40
2019,11,26,17,02,3.20
2019,11,26,17,04,1.60
2019,11,26,17,05,6.40
2019,11,26,17,06,3.20
2019,11,26,17,07,1.60
2019,11,26,17,09,3.20
2019,11,26,17,10,4.80
2019,11,26,17,11,3.20
2019,11,26,17,12,3.20
2019,11,26,17,13,4.80
2019,11,26,17,14,1.60
2019,11,26,17,15,4.80
2019,11,26,17,16,3.20
2019,11,26,17,18,4.80
2019,11,26,17,19,1.60
2019,11,26,17,20,3.20
2019,11,26,17,21,6.40
2019,11,26,17,22,4.80
2019,11,26,17,23,3.20
2019,11,26,17,24,3.20
2019,11,26,17,25,3.20
2019,11,26,17,26,4.80
2019,11,26,17,27,4.80
2019,11,26,17,28,3.20
2019,11,26,17,29,3.20
2019,11,26,17,30,4.80
2019,11,26,17,31,3.20
2019,11,26,17,32,4.80
2019,11,26,17,33,1.60
2019,11,26,17,34,1.60
2019,11,26,17,36,4.80
2019,11,26,17,37,8.10
2019,11,26,17,38,4.80
2019,11,26,17,39,4.80
2019,11,26,17,40,6.40
2019,11,26,17,41,6.40
2019,11,26,17,42,4.80
2019,11,26,17,43,6.40
2019,11,26,17,44,4.80
2019,11,26,17,45,3.20
2019,11,26,17,48,3.20
2019,11,26,17,49,3.20
2019,11,26,17,50,3.20
2019,11,26,17,51,1.60
2019,11,26,17,52,4.80
2019,11,26,17,53,3.20
2019,11,26,17,54,1.60
2019,11,26,17,55,3.20
2019,11,26,17,56,1.60
2019,11,26,17,57,3.20
2019,11,26,17,58,3.20
2019,11,26,17,59,3.20
2019,11,26,18,01,4.80
2019,11,26,18,02,6.40
2019,11,26,18,03,3.20
2019,11,26,18,04,1.60
2019,11,26,18,05,4.80
2019,11,26,18,06,1.60
2019,11,26,18,08,4.80
2019,11,26,18,09,3.20
2019,11,26,18,10,4.80
2019,11,26,18,11,4.80
2019,11,26,18,12,3.20
2019,11,26,18,14,3.20
2019,11,26,18,15,4.80
2019,11,26,18,16,3.20
2019,11,26,18,17,9.60
2019,11,26,18,18,8.10
2019,11,26,18,19,4.80
2019,11,26,18,20,3.20
2019,11,26,18,21,1.60
2019,11,26,18,22,3.20
2019,11,26,18,23,1.60
2019,11,26,18,24,4.80
2019,11,26,18,25,3.20
2019,11,26,18,26,1.60
2019,11,26,18,27,4.80
2019,11,26,18,28,1.60
2019,11,26,18,31,3.20
2019,11,26,18,32,4.80
2019,11,26,18,33,3.20
2019,11,26,18,34,4.80
2019,11,26,18,35,4.80
2019,11,26,18,36,3.20
2019,11,26,18,37,3.20
2019,11,26,18,38,3.20
2019,11,26,18,39,6.40
2019,11,26,18,44,3.20
2019,11,26,18,45,3.20
2019,11,26,18,46,3.20
2019,11,26,18,47,1.60
2019,11,26,18,48,6.40
2019,11,26,18,49,4.80
2019,11,26,18,50,4.80
2019,11,26,18,51,4.80
2019,11,26,18,52,1.60
2019,11,26,18,54,3.20
2019,11,26,18,55,4.80
2019,11,26,18,56,3.20
2019,11,26,18,57,6.40
2019,11,26,18,58,3.20
2019,11,26,18,59,4.80
2019,11,26,19,00,6.40
2019,11,26,19,01,8.10
2019,11,26,19,02,8.10
2019,11,26,19,03,8.10
2019,11,26,19,04,4.80
2019,11,26,19,05,6.40
2019,11,26,19,06,8.10
2019,11,26,19,07,9.60
2019,11,26,19,08,1.60
2019,11,26,19,09,6.40
2019,11,26,19,10,6.40
2019,11,26,19,11,3.20
2019,11,26,19,12,6.40
2019,11,26,19,13,4.80
2019,11,26,19,14,1.60
2019,11,26,19,16,4.80
2019,11,26,19,17,3.20
2019,11,26,19,18,4.80
2019,11,26,19,19,4.80
2019,11,26,19,20,4.80
2019,11,26,19,21,3.20
2019,11,26,19,22,6.40
2019,11,26,19,23,4.80
2019,11,26,19,24,4.80
2019,11,26,19,26,4.80
2019,11,26,19,27,6.40
2019,11,26,19,28,3.20
2019,11,26,19,29,4.80
2019,11,26,19,30,3.20
2019,11,26,19,31,8.10
2019,11,26,19,32,6.40
2019,11,26,19,33,8.10
2019,11,26,19,34,4.80
2019,11,26,19,35,6.40
2019,11,26,19,36,3.20
2019,11,26,19,37,4.80
2019,11,26,19,38,8.10
2019,11,26,19,39,8.10
2019,11,26,19,40,6.40
2019,11,26,19,41,4.80
2019,11,26,19,42,4.80
2019,11,26,19,43,6.40
2019,11,26,19,44,6.40
2019,11,26,19,45,3.20
2019,11,26,19,46,3.20
2019,11,26,19,47,1.60
2019,11,26,19,48,8.10
2019,11,26,19,49,8.10
2019,11,26,19,50,4.80
2019,11,26,19,51,3.20
2019,11,26,19,52,9.60
2019,11,26,19,53,11.30
2019,11,26,19,54,6.40
2019,11,26,19,55,9.60
2019,11,26,19,56,4.80
2019,11,26,19,57,9.60
2019,11,26,19,58,9.60
2019,11,26,19,59,6.40
2019,11,26,20,00,12.90
2019,11,26,20,01,17.70
2019,11,26,20,02,25.70
2019,11,26,20,03,20.90
2019,11,26,20,04,16.10
2019,11,26,20,05,16.10
2019,11,26,20,06,17.70
2019,11,26,20,07,11.30
2019,11,26,20,08,16.10
2019,11,26,20,09,17.70
2019,11,26,20,10,16.10
2019,11,26,20,11,17.70
2019,11,26,20,12,11.30
2019,11,26,20,13,6.40
2019,11,26,20,14,19.30
2019,11,26,20,15,19.30
2019,11,26,20,16,9.60
2019,11,26,20,17,4.80
2019,11,26,20,18,4.80
2019,11,26,20,19,4.80
2019,11,26,20,20,9.60
2019,11,26,20,21,19.30
2019,11,26,20,22,9.60
2019,11,26,20,23,8.10
2019,11,26,20,24,3.20
2019,11,26,20,25,3.20
2019,11,26,20,26,3.20
2019,11,26,20,27,20.90
2019,11,26,20,28,19.30
2019,11,26,20,29,14.50
2019,11,26,20,30,14.50
2019,11,26,20,31,11.30
2019,11,26,20,32,14.50
2019,11,26,20,33,11.30
2019,11,26,20,34,6.40
2019,11,26,20,35,14.50
2019,11,26,20,36,8.10
2019,11,26,20,37,4.80
2019,11,26,20,38,6.40
2019,11,26,20,39,4.80
2019,11,26,20,40,1.60
2019,11,26,20,41,6.40
2019,11,26,20,42,4.80
2019,11,26,20,43,20.90
2019,11,26,20,44,9.60
2019,11,26,20,45,6.40
2019,11,26,20,46,17.70
2019,11,26,20,47,8.10
2019,11,26,20,48,6.40
2019,11,26,20,49,6.40
2019,11,26,20,50,8.10
2019,11,26,20,51,3.20
2019,11,26,20,52,4.80
2019,11,26,20,53,11.30
2019,11,26,20,54,8.10
2019,11,26,20,55,11.30
2019,11,26,20,56,9.60
2019,11,26,20,57,8.10
2019,11,26,20,58,16.10
2019,11,26,20,59,6.40
2019,11,26,21,00,4.80
2019,11,26,21,01,6.40
2019,11,26,21,02,4.80
2019,11,26,21,03,4.80
2019,11,26,21,04,9.60
2019,11,26,21,05,9.60
2019,11,26,21,06,6.40
2019,11,26,21,07,9.60
2019,11,26,21,08,11.30
2019,11,26,21,09,6.40
2019,11,26,21,10,9.60
2019,11,26,21,11,8.10
2019,11,26,21,12,4.80
2019,11,26,21,13,8.10
2019,11,26,21,14,14.50
2019,11,26,21,15,8.10
2019,11,26,21,17,6.40
2019,11,26,21,18,6.40
2019,11,26,21,19,11.30
2019,11,26,21,20,11.30
2019,11,26,21,21,22.50
2019,11,26,21,22,14.50
2019,11,26,21,23,8.10
2019,11,26,21,25,3.20
2019,11,26,21,26,4.80
2019,11,26,21,27,4.80
2019,11,26,21,28,4.80
2019,11,26,21,29,4.80
2019,11,26,21,30,4.80
2019,11,26,21,31,8.10
2019,11,26,21,32,4.80
2019,11,26,21,33,6.40
2019,11,26,21,34,6.40
2019,11,26,21,35,4.80
2019,11,26,21,36,11.30
2019,11,26,21,37,12.90
2019,11,26,21,38,14.50
2019,11,26,21,39,8.10
2019,11,26,21,40,6.40
2019,11,26,21,41,6.40
2019,11,26,21,42,4.80
2019,11,26,21,43,4.80
2019,11,26,21,44,17.70
2019,11,26,21,45,24.20
2019,11,26,21,46,9.60
2019,11,26,21,47,8.10
2019,11,26,21,48,14.50
2019,11,26,21,49,8.10
2019,11,26,21,50,9.60
2019,11,26,21,51,20.90
2019,11,26,21,52,9.60
2019,11,26,21,53,4.80
2019,11,26,21,54,9.60
2019,11,26,21,55,8.10
2019,11,26,21,56,11.30
2019,11,26,21,57,24.20
2019,11,26,21,58,24.20
2019,11,26,21,59,24.20
2019,11,26,22,00,11.30
2019,11,26,22,01,22.50
2019,11,26,22,02,19.30
2019,11,26,22,03,22.50
2019,11,26,22,04,16.10
2019,11,26,22,05,9.60
2019,11,26,22,06,22.50
2019,11,26,22,07,22.50